Location: Sungai Bunut
(2.6333°N, 113.7333°E)
Time: 18:15:21
(UTC+00:00)

S-56A Canister/Altair - Pass Details

Date: 10 December 2023
Orbit: 640 x 2488 km, 38.9° (Epoch: 20 February)

Event Time Altitude Azimuth Distance (km) Brightness Sun altitude
Rises 13:21:24 0° 257° (WSW) 4,548 12.2 -42.7°
Reaches altitude 10° 13:26:27 10° 233° (SW) 3,976 11.7 -43.8°
Maximum altitude 13:31:21 14° 206° (SSW) 4,011 11.5 -44.9°
Drops below altitude 10° 13:36:58 10° 179° (S) 4,663 11.7 -46.1°
Sets 13:44:12 0° 157° (SSE) 5,982 12.2 -47.6°
